Flag Weather past 2 weeks in Alpena, Michigan, U.S.A.

Now
26 °F

Mostly cloudy.


Feels Like: 19 °F
Forecast: 18 / 29 °F
Wind: 6 mph from Northwest

Location: Alpena County Regional Airport

Current Time: Nov 26, 2014 at 10:04:38 PM

Latest Report: Nov 26, 2014 at 8:54 PM


Visibility: 10 mi

Pressure: 30.14 "Hg

Humidity: 81%

Dew point: 21 °F

Location of AlpenaLocation

Historic Weather in Alpena — Graph

°F

Alpena temperature yesterday

Maximum temperature yesterday: 33 °F (at 1:54 AM)
Minimum temperature yesterday: 27 °F (at 8:54 PM)
Average temperature yesterday: 29 °F

Past Weeks' High & Low Weather Summary

 TemperatureHumidityPressure
High51 °F (Nov 24, 12:54 PM)100% (Nov 22, 8:54 PM)30.39 "Hg (Nov 22, 8:54 PM)
Low11 °F (Nov 19, 4:54 AM)51% (Nov 15, 10:54 AM)28.92 "Hg (Nov 24, 5:54 AM)
Average29 °F79%29.88 "Hg
* Reported Nov 11 8:01 PM — Nov 26 8:54 PM, Alpena, Weather by CustomWeather, © 2014

Note: Actual official high and low records may vary slightly from our data, if they occured in-between our weather recording intervals... More about our weather records

Advertising

Alpena weather history for previous 24 hours

 ConditionsComfort  
Time TempWeatherWind HumidityBarometerVisibility
8:54 PM
Nov 26
26 °FMostly cloudy.6 mph81%30.14 "Hg10 mi
7:54 PM26 °FMostly cloudy.5 mph84%30.16 "Hg10 mi
6:54 PM26 °FOvercast.7 mph88%30.18 "Hg10 mi
5:54 PM27 °FLight snow. Mostly cloudy.5 mph85%30.19 "Hg8 mi
4:54 PM27 °FOvercast.3 mph85%30.19 "Hg10 mi
3:54 PM27 °FOvercast.5 mph85%30.19 "Hg10 mi
2:54 PM28 °FOvercast.3 mph81%30.18 "Hg10 mi
1:54 PM28 °FOvercast.9 mph81%30.18 "Hg10 mi
12:54 PM28 °FOvercast.3 mph81%30.19 "Hg10 mi
11:54 AM28 °FOvercast.No wind81%30.21 "Hg10 mi
10:54 AM28 °FOvercast.5 mph78%30.23 "Hg10 mi
9:54 AM27 °FOvercast.3 mph78%30.22 "Hg10 mi
9:03 AM26 °FOvercast.7 mph81%30.20 "Hg10 mi
8:54 AM26 °FOvercast.6 mph81%30.23 "Hg10 mi
7:54 AM26 °FOvercast.6 mph81%30.22 "Hg10 mi
6:54 AM26 °FOvercast.No wind84%30.21 "Hg10 mi
5:54 AM27 °FOvercast.No wind78%30.21 "Hg10 mi
4:54 AM27 °FOvercast.6 mph72%30.22 "Hg10 mi
3:54 AM27 °FOvercast.No wind81%30.23 "Hg10 mi
3:02 AM27 °FOvercast.No wind85%30.20 "Hg10 mi
1:54 AM27 °FOvercast.3 mph92%30.22 "Hg10 mi
12:54 AM27 °FOvercast.No wind92%30.21 "Hg10 mi
11:54 PM
Nov 25
27 °FOvercast.No wind85%30.20 "Hg10 mi
10:54 PM27 °FOvercast.No wind89%30.18 "Hg10 mi
Weather by CustomWeather, © 2014

See weather overviewHow to use our weather pages